"Pseudo-MPEC" for P10Swlv

Created 2019 Oct 21 2:07:34 UT using Find_Orb

Click here for an explanation of pseudo-MPECs

 
 Astrometry: 
     P10Swlv  C2019 10 07cBne!\?2QuRpAstrometryg6_vInredacted;^+Z=ur@%HK@?h)aF51
     P10Swlv  C2019 10 076IbrhOI='s+qY[t'@Za7U3WZ[\TJ^;:-Xclick3Ohere-6lh0Q9CF51
     P10Swlv  C2019 10 0733J-formeDyU7Z7k5O*V6bC?IZf7jq*g*7ke5Bexplanation!DYF51
     P10Swlv ^C2019 10 08.31330 00 00 09.376+21 38 51.87   ~A907 22.8 GVNEOCP568
     P10Swlv ^C2019 10 08.31568 00 00 09.355+21 38 50.85   ~A907 22.3 GVNEOCP568
     P10Swlv ^C2019 10 08.31851 00 00 09.310+21 38 49.90   ~A907 22.5 GVNEOCP568
     P10Swlv ^C2019 10 08.32136 00 00 09.277+21 38 48.91   ~A907 22.4 GVNEOCP568
     P10Swlv ^C2019 10 08.32356 00 00 09.244+21 38 48.03   ~A907 22.6 GVNEOCP568
     P10Swlv ^C2019 10 08.32618 00 00 09.217+21 38 47.09   ~A907 22.2 GVNEOCP568
     P10Swlv ^C2019 10 08.32809 00 00 09.177+21 38 46.49   ~A907 22.7 GVNEOCP568
     P10Swlv ^C2019 10 08.33122 00 00 09.134+21 38 45.23   ~A907 22.4 GVNEOCP568
     P10Swlv ^C2019 10 08.33390 00 00 09.086+21 38 44.23   ~A907 22.7 GVNEOCP568

Station data:
(568) Mauna Kea  (N19.826116 W155.472200)  US/Hawaii.
(F51) Pan-STARRS 1, Haleakala  (N20.707235 W156.255910)  US/Hawaii.
   Observers N. Primak, A. Schultz, S. Watters, J. Thiel, T. Goggia. Measurer
   PS1 Science Consortium. 1.8-m Ritchey-Chrétien + CCD.

Orbital elements:  P10Swlv
   Perihelion 2019 Oct 22.431747 +/- 55 TT = 10:21:43 (JD 2458778.931747)
Epoch 2019 Oct  8.0 TT = JDT 2458764.5   Earth MOID: 0.5222   AutoNEOCP
M 356.33563210 +/- 7                (J2000 ecliptic)
n   0.25391020 +/- 0.132            Peri.  116.61391 +/- 60
a   2.46991844 +/- 0.859            Node   264.81129 +/- 25
e   0.3921660 +/- 0.186             Incl.    7.16364 +/- 1.6
P   3.88                   H 22.5   G  0.15   U 11.4  SR
q 1.50130033 +/- 0.269    Q 3.43853655 +/- 37.8
From 12 observations 2019 Oct. 7-8 (20.6 hr); mean residual 0".10
Residuals in arcseconds: 
191007 F51  .14-  .09-    191008 568  .05-  .07-    191008 568  .20+  .02-    
191007 F51  .08-  .05-    191008 568  .09-  .00     191008 568  .04+  .08+    
191007 F51  .23+  .15+    191008 568  .03+  .05+    191008 568  .09+  .04-    
191008 568  .24-  .09+    191008 568  .03+  .03-    191008 568  .02-  .06-    

Ephemerides (geocentric):
Date (UTC) HH   RA              Dec         delta   r     elong  mag " sig PA
---- -- -- --  -------------   -----------  ------ ------ -----  --- ---- ---
2019 10 21 02  00 00 41.279   +19 55 40.67  .54123 1.5013 154.1 22.9  800  79
2019 10 21 03  00 00 41.912   +19 55 17.24  .54131 1.5013 154.1 22.9  806  79
2019 10 21 04  00 00 42.549   +19 54 53.81  .54139 1.5013 154.1 22.9  811  79
2019 10 21 05  00 00 43.190   +19 54 30.36  .54147 1.5013 154.1 22.9  817  79
2019 10 21 06  00 00 43.835   +19 54 06.89  .54155 1.5013 154.0 22.9  822  79
2019 10 21 07  00 00 44.483   +19 53 43.42  .54163 1.5013 154.0 22.9  828  79
2019 10 21 08  00 00 45.135   +19 53 19.93  .54171 1.5013 154.0 22.9  833  79
2019 10 21 09  00 00 45.792   +19 52 56.44  .54179 1.5013 154.0 22.9  839  79
2019 10 21 10  00 00 46.452   +19 52 32.93  .54187 1.5013 153.9 22.9  845  79
2019 10 21 11  00 00 47.116   +19 52 09.41  .54195 1.5013 153.9 22.9  850  79
2019 10 21 12  00 00 47.783   +19 51 45.87  .54203 1.5013 153.9 22.9  856  79
2019 10 21 13  00 00 48.455   +19 51 22.33  .54211 1.5013 153.9 22.9  862  78
2019 10 21 14  00 00 49.130   +19 50 58.77  .54219 1.5013 153.8 22.9  867  78
2019 10 21 15  00 00 49.810   +19 50 35.20  .54228 1.5013 153.8 22.9  873  78
2019 10 21 16  00 00 50.493   +19 50 11.62  .54236 1.5013 153.8 22.9  879  78
2019 10 21 17  00 00 51.180   +19 49 48.03  .54244 1.5013 153.8 22.9  885  78
2019 10 21 18  00 00 51.870   +19 49 24.43  .54253 1.5013 153.7 22.9  891  78
2019 10 21 19  00 00 52.565   +19 49 00.82  .54261 1.5013 153.7 23.0  896  78
2019 10 21 20  00 00 53.264   +19 48 37.19  .54269 1.5013 153.7 23.0  902  78
2019 10 21 21  00 00 53.966   +19 48 13.56  .54278 1.5013 153.7 23.0  908  78
2019 10 21 22  00 00 54.672   +19 47 49.91  .54286 1.5013 153.6 23.0  914  78
2019 10 21 23  00 00 55.383   +19 47 26.25  .54294 1.5013 153.6 23.0  920  78
2019 10 22 00  00 00 56.097   +19 47 02.58  .54303 1.5013 153.6 23.0  926  78
2019 10 22 01  00 00 56.815   +19 46 38.91  .54311 1.5013 153.6 23.0  932  78
2019 10 22 02  00 00 57.536   +19 46 15.22  .54320 1.5013 153.5 23.0  938  78
2019 10 22 03  00 00 58.262   +19 45 51.52  .54328 1.5013 153.5 23.0  944  78
2019 10 22 04  00 00 58.992   +19 45 27.81  .54337 1.5013 153.5 23.0  950  78
2019 10 22 05  00 00 59.725   +19 45 04.09  .54346 1.5013 153.5 23.0  956  78
2019 10 22 06  00 01 00.463   +19 44 40.36  .54354 1.5013 153.4 23.0  962  78
2019 10 22 07  00 01 01.204   +19 44 16.62  .54363 1.5013 153.4 23.0  968  77
2019 10 22 08  00 01 01.949   +19 43 52.87  .54372 1.5013 153.4 23.0  974  77
2019 10 22 09  00 01 02.698   +19 43 29.10  .54380 1.5013 153.4 23.0  981  77
2019 10 22 10  00 01 03.451   +19 43 05.33  .54389 1.5013 153.3 23.0  987  77
2019 10 22 11  00 01 04.208   +19 42 41.55  .54398 1.5013 153.3 23.0  993  77
2019 10 22 12  00 01 04.969   +19 42 17.76  .54406 1.5013 153.3 23.0  999  77
2019 10 22 13  00 01 05.734   +19 41 53.96  .54415 1.5013 153.3 23.0 1005  77
2019 10 22 14  00 01 06.502   +19 41 30.15  .54424 1.5013 153.2 23.0 1012  77
2019 10 22 15  00 01 07.275   +19 41 06.34  .54433 1.5013 153.2 23.0 1018  77
2019 10 22 16  00 01 08.051   +19 40 42.51  .54442 1.5013 153.2 23.0 1024  77
2019 10 22 17  00 01 08.832   +19 40 18.67  .54451 1.5013 153.1 23.0 1031  77
2019 10 22 18  00 01 09.616   +19 39 54.82  .54460 1.5013 153.1 23.0 1037  77
2019 10 22 19  00 01 10.404   +19 39 30.97  .54469 1.5013 153.1 23.0 1043  77
2019 10 22 20  00 01 11.197   +19 39 07.10  .54477 1.5013 153.1 23.0 1050  77
2019 10 22 21  00 01 11.993   +19 38 43.23  .54486 1.5013 153.0 23.0 1056  77
2019 10 22 22  00 01 12.793   +19 38 19.35  .54496 1.5013 153.0 23.0 1063  77
2019 10 22 23  00 01 13.597   +19 37 55.46  .54505 1.5013 153.0 23.0 1069  77
2019 10 23 00  00 01 14.405   +19 37 31.56  .54514 1.5013 153.0 23.0 1076  77
2019 10 23 01  00 01 15.217   +19 37 07.65  .54523 1.5013 152.9 23.0 1082  76